User: anonymous   Login
Location: Mahannah Oil Field
(37.4664°N, 96.6003°W)
Time: 18:02:18
(UTC+00:00)
Language:

Courier 1B Rocket - Orbit

View from above orbital plane
View from above orbital plane
View from above satellite
View from above satellite

Ground track
Ground track

The orbit data is extracted from the following two-line orbital elements,

1 00059U 60013B   21129.00391894  .00000115  00000-0  35819-4 0  9990
2 00059  28.2499 345.9161 0189175 138.6605 222.8425 13.52984581990480
Epoch (UTC): 09 May 2021 00:05:38
Eccentricity: 0.0189175
inclination: 28.2499°
perigee height: 920 km
apogee height: 1202 km
right ascension of ascending node: 345.9161°
argument of perigee: 138.6605°
revolutions per day: 13.52984581
mean anomaly at epoch: 222.8425°
orbit number at epoch: 99048

The dashed part of the orbit path shows where the satellite is in the earth's shadow,  

DLR